N4NVD-13 Weather Reports


Display with metric or nautical units.
time (UTC)temp
F
wind
direction
speed
MPH
gust
MPH
rain 1hr
in
rain 24hr
in
rain mn
in
humidity
%
barometer
mb
20260906125742 77 72 2.0 3.0 0.00 0.00 0.00 99 1013.2
20260906125241 77 90 1.0 3.0 0.00 0.00 0.00 99 1013.3
20260906124735 77 84 0.0 2.0 0.00 0.00 0.00 99 1013.0
20260906124231 76 81 0.0 2.0 0.00 0.00 0.00 99 1013.2
20260906123729 76 75 0.0 3.0 0.00 0.00 0.00 99 1013.2
20260906123225 76 84 0.0 2.0 0.00 0.00 0.00 99 1013.1
20260906122725 76 90 0.0 2.0 0.00 0.00 0.00 99 1013.3
20260906122220 76 106 1.0 3.0 0.00 0.00 0.00 99 1013.0
20260906121717 76 90 1.0 3.0 0.00 0.00 0.00 99 1013.1
20260906121213 76 64 3.0 3.0 0.00 0.00 0.00 99 1013.2
20260906120708 76 90 1.0 3.0 0.00 0.00 0.00 99 1012.9
20260906120205 76 23 1.0 2.0 0.00 0.00 0.00 99 1012.7
20260906115700 76 90 0.0 1.0 0.00 0.00 0.00 99 1012.7
20260906115156 76 0 0.0 1.0 0.00 0.00 0.00 99 1012.7
20260906114654 76 7 1.0 2.0 0.00 0.00 0.00 99 1012.7
20260906114150 75 66 0.0 2.0 0.00 0.00 0.00 99 1012.6
20260906113649 75 75 1.0 2.0 0.00 0.00 0.00 99 1012.4
20260906113144 75 68 2.0 2.0 0.00 0.00 0.00 99 1012.1
20260906112643 75 69 0.0 2.0 0.00 0.00 0.00 99 1012.3
20260906112141 75 20 1.0 1.0 0.00 0.00 0.00 99 1012.0
20260906111640 74 60 0.0 0.0 0.00 0.00 0.00 99 1012.1
20260906111135 75 60 0.0 0.0 0.00 0.00 0.00 99 1011.9
20260906110629 75 60 0.0 0.0 0.00 0.00 0.00 99 1011.8
20260906110124 75 35 0.0 0.0 0.00 0.00 0.00 99 1011.7
20260906105618 75 35 0.0 1.0 0.00 0.00 0.00 99 1011.7
20260906105115 75 352 0.0 0.0 0.00 0.00 0.00 99 1011.8
20260906104613 75 352 0.0 0.0 0.00 0.00 0.00 99 1011.8
20260906104102 75 352 0.0 0.0 0.00 0.00 0.00 99 1011.7
20260906103601 75 99 0.0 0.0 0.00 0.00 0.00 99 1011.8
20260906103055 75 99 0.0 0.0 0.00 0.00 0.00 99 1011.7
20260906102550 76 99 0.0 0.0 0.00 0.00 0.00 99 1011.7
20260906102045 76 99 0.0 0.0 0.00 0.00 0.00 99 1011.8
20260906101539 76 261 0.0 0.0 0.00 0.00 0.00 99 1011.8
20260906101034 76 261 0.0 0.0 0.00 0.00 0.00 99 1011.6
20260906100529 76 261 0.0 0.0 0.00 0.00 0.00 99 1011.5
20260906100024 76 278 0.0 0.0 0.00 0.00 0.00 99 1011.5
20260906095519 76 278 0.0 1.0 0.00 0.00 0.00 99 1011.5
20260906095014 76 294 0.0 1.0 0.00 0.00 0.00 99 1011.6
20260906094513 76 352 0.0 0.0 0.00 0.00 0.00 99 1011.4
20260906094009 76 0 0.0 0.0 0.00 0.00 0.00 99 1011.8
20260906093505 76 0 0.0 0.0 0.00 0.00 0.00 99 1011.5
20260906092959 76 0 0.0 0.0 0.00 0.00 0.00 99 1011.4
20260906092454 76 66 0.0 0.0 0.00 0.00 0.00 99 1011.4
20260906091948 76 66 0.0 0.0 0.00 0.00 0.00 99 1011.3
20260906091445 76 66 0.0 0.0 0.00 0.00 0.00 99 1011.5
20260906090941 76 66 0.0 0.0 0.00 0.00 0.00 99 1011.4
20260906090436 76 66 0.0 0.0 0.00 0.00 0.00 99 1011.4
20260906085936 76 66 0.0 0.0 0.00 0.00 0.00 99 1011.5
20260906085435 76 0 0.0 0.0 0.00 0.00 0.00 99 1011.3
20260906084934 76 0 0.0 0.0 0.00 0.00 0.00 99 1011.3
20260906084430 76 0 0.0 0.0 0.00 0.00 0.00 99 1011.4
20260906083928 77 8 0.0 0.0 0.00 0.00 0.00 99 1011.4
20260906083424 77 57 2.0 2.0 0.00 0.00 0.00 99 1011.6
20260906082923 77 60 0.0 0.0 0.00 0.00 0.00 99 1011.4
20260906082419 77 74 1.0 1.0 0.00 0.00 0.00 99 1011.5
20260906081914 76 249 0.0 0.0 0.00 0.00 0.00 99 1011.4
20260906081410 76 249 0.0 0.0 0.00 0.00 0.00 99 1011.4
20260906080906 76 249 0.0 0.0 0.00 0.00 0.00 99 1011.5
20260906080403 76 249 0.0 0.0 0.00 0.00 0.00 99 1011.5
20260906075901 76 249 0.0 0.0 0.00 0.00 0.00 99 1011.5
20260906075356 76 249 0.0 0.0 0.00 0.00 0.00 99 1011.7
20260906074852 77 8 0.0 0.0 0.00 0.00 0.00 99 1011.7
20260906074351 76 8 0.0 0.0 0.00 0.00 0.00 98 1011.9
20260906073850 76 8 0.0 0.0 0.00 0.00 0.00 98 1011.8
20260906073345 76 0 0.0 0.0 0.00 0.00 0.00 98 1011.8
20260906072842 76 0 0.0 0.0 0.00 0.00 0.00 98 1011.9
20260906072337 76 0 0.0 0.0 0.00 0.00 0.00 98 1011.9
20260906071833 76 90 0.0 0.0 0.00 0.00 0.00 98 1012.1
20260906071328 76 249 0.0 0.0 0.00 0.00 0.00 98 1012.0
20260906070824 76 249 0.0 0.0 0.00 0.00 0.00 98 1012.0
20260906070319 76 83 0.0 0.0 0.00 0.00 0.00 98 1012.1
20260906065814 76 83 0.0 0.0 0.00 0.00 0.00 98 1012.3
20260906065309 76 82 1.0 1.0 0.00 0.00 0.00 98 1012.4
20260906064805 76 286 0.0 0.0 0.00 0.00 0.00 97 1012.2
20260906064301 76 286 0.0 1.0 0.00 0.00 0.00 97 1012.3
20260906063755 76 279 0.0 0.0 0.00 0.00 0.00 97 1012.2
20260906063251 76 279 0.0 0.0 0.00 0.00 0.00 97 1012.4
20260906062746 77 279 0.0 1.0 0.00 0.00 0.00 97 1012.3
20260906062245 77 286 0.0 0.0 0.00 0.00 0.00 97 1012.4
20260906061741 77 286 0.0 0.0 0.00 0.00 0.00 97 1012.3
20260906061238 77 286 0.0 0.0 0.00 0.00 0.00 97 1012.4
20260906060732 77 286 0.0 1.0 0.00 0.00 0.00 97 1012.4
20260906060230 77 66 0.0 0.0 0.00 0.00 0.00 97 1012.4
20260906055725 77 66 0.0 1.0 0.00 0.00 0.00 96 1012.2
20260906055220 77 0 0.0 1.0 0.00 0.00 0.00 96 1012.3
20260906054715 77 254 0.0 0.0 0.00 0.00 0.00 96 1012.2
20260906054210 77 75 0.0 0.0 0.00 0.00 0.00 96 1012.3
20260906053707 77 75 0.0 0.0 0.00 0.00 0.00 95 1012.2
20260906053202 77 75 0.0 0.0 0.00 0.00 0.00 95 1012.3
20260906052657 77 0 0.0 1.0 0.00 0.00 0.00 95 1012.2
20260906052154 77 353 1.0 1.0 0.00 0.00 0.00 95 1012.6
20260906051650 77 15 0.0 2.0 0.00 0.00 0.00 95 1012.5
20260906051149 77 0 0.0 1.0 0.00 0.00 0.00 94 1012.4
20260906050645 77 74 0.0 0.0 0.00 0.00 0.00 94 1012.5
20260906050140 77 74 0.0 0.0 0.00 0.00 0.00 94 1012.4
20260906045638 77 74 0.0 0.0 0.00 0.00 0.00 93 1012.4
20260906045134 77 74 0.0 0.0 0.00 0.00 0.00 93 1012.4
20260906044630 78 74 0.0 0.0 0.00 0.00 0.00 93 1012.2
20260906044125 78 74 0.0 0.0 0.00 0.00 0.00 92 1012.4
20260906043621 78 74 0.0 0.0 0.00 0.00 0.00 92 1012.4
20260906043116 78 74 0.0 0.0 0.00 0.00 0.00 92 1012.5
20260906042615 78 49 0.0 2.0 0.00 0.00 0.00 91 1012.4
20260906042110 79 148 0.0 0.0 0.00 0.00 0.00 91 1012.5
20260906041606 79 90 0.0 0.0 0.00 0.00 0.00 91 1012.4
20260906041101 79 90 0.0 3.0 0.00 0.00 0.00 91 1012.4
20260906040555 79 165 0.0 0.0 0.00 0.00 0.00 91 1012.4
20260906040046 79 82 0.0 1.0 0.00 0.00 0.00 91 1012.3
20260906035541 79 111 0.0 0.0 0.00 0.00 0.00 90 1012.6
20260906035037 79 111 0.0 2.0 0.00 0.00 0.00 90 1012.1
20260906034536 79 81 1.0 1.0 0.00 0.00 0.00 90 1012.3
20260906034032 79 83 0.0 0.0 0.00 0.00 0.00 90 1012.2
20260906033527 79 83 0.0 0.0 0.00 0.00 0.00 90 1012.5
20260906033022 79 83 0.0 0.0 0.00 0.00 0.00 90 1012.2
20260906032518 79 60 0.0 1.0 0.00 0.00 0.00 89 1012.4
20260906032013 79 90 0.0 2.0 0.00 0.00 0.00 89 1012.3
20260906031509 79 54 0.0 1.0 0.00 0.00 0.00 89 1012.2
20260906031004 79 145 1.0 2.0 0.00 0.00 0.00 89 1012.3
20260906030457 79 84 2.0 3.0 0.00 0.00 0.00 89 1012.4
20260906025951 79 71 0.0 2.0 0.00 0.00 0.00 88 1012.3
20260906025446 79 73 2.0 3.0 0.00 0.00 0.00 88 1012.4
20260906024945 79 98 0.0 2.0 0.00 0.00 0.00 88 1012.4
20260906024444 80 148 0.0 3.0 0.00 0.00 0.00 87 1012.0
20260906023939 80 12 0.0 2.0 0.00 0.00 0.00 87 1012.0
20260906023435 80 36 0.0 2.0 0.00 0.00 0.00 86 1012.1
20260906022930 80 74 0.0 2.0 0.00 0.00 0.00 86 1011.7
20260906022426 80 81 1.0 3.0 0.00 0.00 0.00 85 1011.7
20260906021921 80 81 0.0 1.0 0.00 0.00 0.00 84 1011.6
20260906021420 80 81 0.0 0.0 0.00 0.00 0.00 84 1011.5
20260906020915 81 90 0.0 0.0 0.00 0.00 0.00 83 1011.5
20260906020409 81 101 0.0 2.0 0.00 0.00 0.00 83 1011.6
20260906015904 81 56 0.0 2.0 0.00 0.00 0.00 83 1011.4
20260906015403 81 90 0.0 3.0 0.00 0.00 0.00 82 1011.3
20260906014902 81 74 2.0 3.0 0.00 0.00 0.00 82 1011.3
20260906014357 82 94 2.0 4.0 0.00 0.00 0.00 81 1011.1
20260906013853 82 150 2.0 3.0 0.00 0.00 0.00 81 1011.3
20260906013349 82 102 3.0 5.0 0.00 0.00 0.00 81 1010.9
20260906012844 82 63 3.0 5.0 0.00 0.00 0.00 80 1011.0
20260906012338 82 74 2.0 4.0 0.00 0.00 0.00 79 1010.9
20260906011833 82 56 2.0 3.0 0.00 0.00 0.00 79 1010.8
20260906011328 83 90 0.0 3.0 0.00 0.00 0.00 78 1010.7
20260906010824 83 83 4.0 4.0 0.00 0.00 0.00 78 1010.9
20260906010320 83 84 2.0 6.0 0.00 0.00 0.00 77 1010.9
20260906005815 83 98 4.0 6.0 0.00 0.00 0.00 76 1011.0
20260906005314 84 68 0.0 5.0 0.00 0.00 0.00 75 1010.9
20260906004812 84 114 3.0 8.0 0.00 0.00 0.00 75 1011.1
20260906004307 84 111 3.0 9.0 0.00 0.00 0.00 74 1011.2
20260906003802 85 90 6.0 11.0 0.00 0.00 0.00 73 1011.3
20260906003257 85 86 5.0 7.0 0.00 0.00 0.00 72 1011.3
20260906002752 86 101 5.0 11.0 0.00 0.00 0.00 71 1011.2
20260906002247 86 84 2.0 9.0 0.00 0.00 0.00 70 1011.1
20260906001743 87 101 5.0 7.0 0.00 0.00 0.00 69 1011.2
20260906001237 87 117 0.0 6.0 0.00 0.00 0.00 68 1011.3
20260906000733 87 128 4.0 11.0 0.00 0.00 0.00 68 1011.1
20260906000234 88 102 5.0 12.0 0.00 0.00 0.00 67 1011.1
20260905235727 89 111 1.0 7.0 0.00 0.00 0.00 66 1010.8
20260905235227 90 95 6.0 10.0 0.00 0.00 0.00 65 1010.7
20260905234723 91 85 9.0 12.0 0.00 0.00 0.00 65 1010.8
20260905234218 91 82 2.0 5.0 0.00 0.00 0.00 65 1010.6
20260905233713 91 66 0.0 3.0 0.00 0.00 0.00 65 1010.7
20260905233213 91 111 1.0 2.0 0.00 0.00 0.00 64 1010.6
20260905232708 91 98 2.0 4.0 0.00 0.00 0.00 63 1010.7
20260905232203 92 99 1.0 3.0 0.00 0.00 0.00 62 1010.5
20260905231659 92 82 0.0 4.0 0.00 0.00 0.00 61 1010.4
20260905231154 92 96 0.0 3.0 0.00 0.00 0.00 61 1010.5
20260905230650 92 132 2.0 5.0 0.00 0.00 0.00 60 1010.5
20260905230148 93 112 2.0 4.0 0.00 0.00 0.00 58 1010.4
20260905225648 93 60 0.0 4.0 0.00 0.00 0.00 57 1010.3
20260905225148 93 66 3.0 6.0 0.00 0.00 0.00 55 1010.4
20260905224647 93 151 1.0 9.0 0.00 0.00 0.00 55 1010.4
20260905224142 93 84 0.0 10.0 0.00 0.00 0.00 55 1010.5
20260905223639 93 103 2.0 5.0 0.00 0.00 0.00 56 1010.4
20260905223136 93 60 3.0 7.0 0.00 0.00 0.00 55 1010.5
20260905222631 94 56 4.0 7.0 0.00 0.00 0.00 54 1010.4
20260905222126 94 37 5.0 6.0 0.00 0.00 0.00 54 1010.4
20260905221621 94 24 6.0 8.0 0.00 0.00 0.00 53 1010.4
20260905221118 94 41 5.0 7.0 0.00 0.00 0.00 53 1010.4
20260905220613 94 59 3.0 8.0 0.00 0.00 0.00 53 1010.5
20260905220109 94 67 2.0 6.0 0.00 0.00 0.00 53 1010.3
20260905215609 95 100 2.0 5.0 0.00 0.00 0.00 54 1010.4
20260905215105 95 76 3.0 8.0 0.00 0.00 0.00 55 1010.6
20260905214601 95 97 3.0 4.0 0.00 0.00 0.00 55 1010.4
20260905214100 96 160 0.0 4.0 0.00 0.00 0.00 53 1010.4
20260905213556 95 74 1.0 7.0 0.00 0.00 0.00 53 1010.7
20260905213051 96 45 3.0 7.0 0.00 0.00 0.00 52 1010.5
20260905212551 98 75 1.0 3.0 0.00 0.00 0.00 51 1010.2
20260905212045 98 186 5.0 6.0 0.00 0.00 0.00 51 1010.5
20260905211540 98 337 1.0 2.0 0.00 0.00 0.00 49 1010.6
20260905211036 96 39 3.0 6.0 0.00 0.00 0.00 53 1010.5
20260905210531 97 83 3.0 4.0 0.00 0.00 0.00 51 1010.6
20260905210026 95 294 1.0 5.0 0.00 0.00 0.00 55 1010.8
20260905205525 95 303 4.0 5.0 0.00 0.00 0.00 57 1010.9
20260905205024 95 0 2.0 4.0 0.00 0.00 0.00 60 1010.7
20260905204520 93 357 0.0 3.0 0.00 0.00 0.00 59 1011.0
20260905204015 93 15 1.0 4.0 0.00 0.00 0.00 61 1011.0
20260905203509 94 357 2.0 4.0 0.00 0.00 0.00 59 1011.1
20260905203005 93 17 3.0 6.0 0.00 0.00 0.00 60 1011.5
20260905202500 93 48 3.0 5.0 0.00 0.00 0.00 60 1011.2
20260905201955 93 351 4.0 5.0 0.00 0.00 0.00 60 1011.5
20260905201451 93 0 1.0 3.0 0.00 0.00 0.00 60 1011.2
20260905200950 93 49 4.0 6.0 0.00 0.00 0.00 62 1011.3
20260905200446 93 0 1.0 4.0 0.00 0.00 0.00 59 1011.4
20260905195944 94 9 5.0 7.0 0.00 0.00 0.00 58 1011.5
20260905195440 93 12 0.0 5.0 0.00 0.00 0.00 61 1011.6
20260905194935 95 30 3.0 8.0 0.00 0.00 0.00 59 1011.7
20260905194434 93 343 2.0 7.0 0.00 0.00 0.00 61 1011.8
20260905193929 92 49 2.0 6.0 0.00 0.00 0.00 63 1011.9
20260905193424 92 49 6.0 8.0 0.00 0.00 0.00 62 1012.0
20260905192919 92 352 4.0 6.0 0.00 0.00 0.00 63 1012.0
20260905192415 93 56 3.0 8.0 0.00 0.00 0.00 62 1012.1
20260905191915 91 0 0.0 5.0 0.00 0.00 0.00 65 1012.4
20260905191414 91 70 9.0 11.0 0.00 0.00 0.00 65 1012.5
20260905190908 91 68 8.0 9.0 0.00 0.00 0.00 65 1012.4
20260905190400 93 85 4.0 8.0 0.00 0.00 0.00 60 1012.5
20260905185859 94 120 3.0 3.0 0.00 0.00 0.00 62 1012.6
20260905185354 92 68 2.0 3.0 0.00 0.00 0.00 61 1012.9
20260905184848 92 203 2.0 4.0 0.00 0.00 0.00 62 1013.2
20260905184348 90 270 1.0 3.0 0.00 0.00 0.00 68 1013.3
20260905183846 87 90 0.0 4.0 0.00 0.00 0.00 74 1013.3
20260905183342 86 257 3.0 5.0 0.00 0.00 0.00 75 1013.6
20260905182842 86 227 3.0 6.0 0.00 0.00 0.00 76 1013.4
20260905182341 86 212 2.0 5.0 0.00 0.00 0.00 75 1013.3
20260905181832 86 101 0.0 9.0 0.00 0.00 0.00 75 1013.2
20260905181331 86 143 5.0 5.0 0.00 0.00 0.00 76 1013.6
20260905180830 86 118 4.0 9.0 0.00 0.00 0.00 76 1013.6
20260905180325 89 105 3.0 7.0 0.00 0.00 0.00 68 1013.7
20260905175820 89 144 2.0 6.0 0.00 0.00 0.00 68 1013.7
20260905175314 92 144 0.0 4.0 0.00 0.00 0.00 63 1013.6
20260905174810 92 221 0.0 3.0 0.00 0.00 0.00 61 1013.6
20260905174306 93 98 0.0 2.0 0.00 0.00 0.00 62 1013.8
20260905173801 92 156 4.0 4.0 0.00 0.00 0.00 63 1013.6
20260905173257 93 152 6.0 8.0 0.00 0.00 0.00 64 1013.6
20260905172757 91 225 4.0 10.0 0.00 0.00 0.00 67 1013.9
20260905172255 92 158 3.0 7.0 0.00 0.00 0.00 66 1013.9
20260905171752 93 222 6.0 6.0 0.00 0.00 0.00 65 1014.0
20260905171248 95 219 5.0 7.0 0.00 0.00 0.00 61 1013.9
20260905170744 93 235 5.0 8.0 0.00 0.00 0.00 64 1014.0
20260905170240 92 141 0.0 5.0 0.00 0.00 0.00 66 1013.8
20260905165738 93 212 3.0 6.0 0.00 0.00 0.00 67 1014.2
20260905165234 93 7 0.0 3.0 0.00 0.00 0.00 68 1014.0
20260905164734 92 262 1.0 5.0 0.00 0.00 0.00 68 1014.0
20260905164228 92 341 3.0 5.0 0.00 0.00 0.00 69 1014.1
20260905163725 91 229 4.0 5.0 0.00 0.00 0.00 70 1014.1
20260905163221 92 233 4.0 6.0 0.00 0.00 0.00 70 1014.4
20260905162716 91 298 3.0 9.0 0.00 0.00 0.00 71 1014.1
20260905162216 91 355 2.0 4.0 0.00 0.00 0.00 74 1014.3
20260905161711 89 283 1.0 6.0 0.00 0.00 0.00 74 1014.3
20260905161209 88 286 0.0 5.0 0.00 0.00 0.00 75 1014.1
20260905160702 88 0 0.0 3.0 0.00 0.00 0.00 79 1014.1
20260905160202 87 234 3.0 5.0 0.00 0.00 0.00 80 1014.1
20260905155656 87 246 5.0 7.0 0.00 0.00 0.00 80 1014.2
20260905155155 88 228 5.0 9.0 0.00 0.00 0.00 81 1014.1
20260905154650 90 255 8.0 9.0 0.00 0.00 0.00 78 1014.1
20260905154146 90 227 5.0 11.0 0.00 0.00 0.00 77 1014.3
20260905153641 90 270 0.0 5.0 0.00 0.00 0.00 79 1014.1
20260905153137 89 222 3.0 4.0 0.00 0.00 0.00 81 1014.3
20260905152632 88 235 3.0 6.0 0.00 0.00 0.00 82 1014.3
20260905152126 89 0 0.0 2.0 0.00 0.00 0.00 81 1014.3
20260905151621 88 242 3.0 3.0 0.00 0.00 0.00 82 1014.3
20260905151117 86 262 0.0 2.0 0.00 0.00 0.00 85 1014.3
20260905150612 86 266 3.0 4.0 0.00 0.00 0.00 86 1014.3
20260905150110 87 225 2.0 4.0 0.00 0.00 0.00 86 1014.3
20260905145609 86 195 0.0 1.0 0.00 0.00 0.00 87 1014.3
20260905145108 86 157 2.0 2.0 0.00 0.00 0.00 87 1014.1
20260905144603 86 132 2.0 2.0 0.00 0.00 0.00 87 1014.3
20260905144102 86 240 4.0 5.0 0.00 0.00 0.00 88 1014.2
20260905143601 87 155 3.0 3.0 0.00 0.00 0.00 85 1014.1
20260905143057 88 262 0.0 3.0 0.00 0.00 0.00 85 1014.3
20260905142555 87 127 0.0 3.0 0.00 0.00 0.00 86 1014.1
20260905142050 88 340 0.0 3.0 0.00 0.00 0.00 86 1014.4
20260905141550 88 54 0.0 1.0 0.00 0.00 0.00 85 1014.1
20260905141047 87 220 0.0 2.0 0.00 0.00 0.00 85 1014.4
20260905140542 86 279 0.0 1.0 0.00 0.00 0.00 87 1014.2
20260905140041 85 172 0.0 3.0 0.00 0.00 0.00 88 1014.2
20260905135536 86 24 2.0 2.0 0.00 0.00 0.00 90 1014.0
20260905135031 84 151 0.0 2.0 0.00 0.00 0.00 90 1014.2
20260905134526 84 124 2.0 2.0 0.00 0.00 0.00 90 1013.9
20260905134024 83 151 0.0 1.0 0.00 0.00 0.00 93 1014.2
20260905133520 82 66 0.0 2.0 0.00 0.00 0.00 95 1014.2
20260905133019 81 123 0.0 2.0 0.00 0.00 0.00 96 1014.0
20260905132514 80 60 2.0 3.0 0.00 0.00 0.00 98 1014.1
20260905132009 81 54 1.0 3.0 0.00 0.00 0.00 99 1014.0
20260905131504 80 99 0.0 2.0 0.00 0.00 0.00 99 1014.1
20260905131000 79 75 0.0 0.0 0.00 0.00 0.00 99 1013.9
20260905130459 78 0 0.0 0.0 0.00 0.00 0.00 99 1013.9
20260905125958 78 0 0.0 0.0 0.00 0.00 0.00 99 1013.7